Showing default

ALSAT 1B, 41785

Orbit data source: Space-Track

ALSAT 1B, 41785 is a payload satellite owned by ASAL (DZ) in SSO that was launched on Mon, 26 Sep 2016 UTC via a PSLV launch vehicle from the Sirharikota (SRI). Payload-class satellites include a variety of spacecraft equipped with specific instruments for various scientific and technological missions. These include communications satellites like Starlink; space stations such as the ISS; scientific satellites like the Hubble; Earth observation satellites from companies like Planet Labs, Umbra, and HawkEye 360; GPS; miniature CubeSats for education and research; and military/defense satellites.

Loading next visibility...
Identifier
41785, 2016-059C
Orbit
SSO
Country
Flag of DZDZ / ALG
Related business
Manufacturer
SSTL (Astrium)
Mission
Operational Civil Imaging
Bus & Motor
SSTL-100, Unknown motor
Mass
103 kg wet, 103 kg dry
Launch date (UTC)
2016-09-26 (9 years ago)
Launch vehicle
PSLV
Launch site
Sirharikota (SRI)
Object type
Payload
Rocket body
Debris
Shape & HBR
Box + 1 Ant, 3.3 m
Radar Cross Section
0.862 m², Medium (>0.1 m² and < 1m²)

Expand to show TLE details & history
Last TLE update: 7 hours ago

TLE from 7 hours ago
0 ALSAT 1B
1 41785U 16059C   26037.20190270  .00000818  00000-0  13736-3 0  9995
2 41785  97.7803  51.5983 0007997 292.2355  67.8004 14.72152088501304
Epoch: 2026-02-06T04:50Z
TLE epoch observation values (Epoch: 2026-02-06T04:50:44.393Z)
Latitude
-0.00005°
Longitude
-157.42983°
Altitude
655.099 km
Speed
7.531 km/s
True Right ascension
03h 26m 23s
True Declination
0° 00' 00"
Sunlit
Object was in daylight at epoch
Visualization orbit readout
Latitude
Unknown
Longitude
Unknown
Altitude
Unknown
Speed
Unknown
Apparent Right ascension
Unknown
Apparent Declination
Unknown
Sunlit
N/A
Visualization observer readout
Local Sidereal Time
13:41:34
Azimuth
Unknown
Elevation
Unknown
Doppler factor
Unknown
Orbital elements
Apogee altitude
656.874 km
Perigee altitude
645.631 km
Semi-major axis
7,029.389 km
Eccentricity
0.0008
Inclination
97.7803°
RAAN
51.5983°
Arg. of periapsis
292.2355°
True anomaly
67.88528°
Mean anomaly
67.8004°
Eccentric anomaly
67.84284°
Mean motion
3.6827 °/min
Orbital period
97.75 mins
BSTAR
0.00013736
Loading maneuver chart data...
Computing Atmospheric mass density...
Loading historical data...
Loading historical data...
Loading historical data...
Loading historical data...
Loading historical data...
Loading historical data...
Loading historical data...

Documentation

Showing up to 5 results
|